sat.trackr.live / text

‹ back to catalog

STARLINK-11605 [DTC]

NORAD 63134 · 2025-043C

PAYLOAD ACTIVE UNKNOWN

§ Identity

Operator
Country
US
Launch date
2025-03-03
Launch site
AFETR
Launch vehicle
Mass (kg)
RCS (m²)

Purposes: comms

External: N2YO · Heavens-Above · Gunter

§ Orbital elements

Epoch: 2026-05-25T01:49:05.306304Z

Period
91.67 min
Inclination
42.9998°
Eccentricity
0.0002961
Mean motion
15.70866491 rev/d
Perigee alt
354.4 km
Apogee alt
358.4 km
Semi-major
6,734.6 km
B*
1.4681e-3
RAAN
150.4671°
Arg perigee
277.5593°
Mean anomaly
82.4939°
Rev number
7,136

§ Raw data

STARLINK-11605 [DTC]1 63134U 25043C   26145.07575586  .00192595  00000+0  14681-2 0  99942 63134  42.9998 150.4671 0002961 277.5593  82.4939 15.70866491 71369

JSON: /api/v1/satellites/63134 · /tle

For live sub-satellite position, see the globe view (requires WebGL).

§ Visibility from observer

Set your observer location to see the next 7 days of passes ≥ 10°. The values pass through the URL so the page stays shareable.

No JS? Fill the form by hand. The geolocation button needs JavaScript.